Location: Central Falls
(41.8900°N, 71.3929°W)
Time: 15:11:28
(UTC+00:00)

Courier 1B Rocket - All Passes

Search period start: 03 December 2023 00:00
Search period end: 13 December 2023 00:00
Orbit: 920 x 1201 km, 28.2° (Epoch: 02 December)

Date Brightness Start Highest point End Pass type
(mag) Time Alt. Az. Time Alt. Az. Time Alt. Az.
03 Dec - 17:54:45 10° SSW 17:59:10 20° S 18:03:30 10° SE daylight
03 Dec - 19:46:52 10° SW 19:51:37 23° S 19:56:21 10° SE daylight
03 Dec - 21:40:29 10° SW 21:44:01 16° SSW 21:47:35 10° SSE visible
04 Dec - 16:54:22 10° SSW 16:58:22 17° SSE 17:02:16 10° SE daylight
04 Dec - 18:45:58 10° SW 18:50:49 23° S 18:55:34 10° SE daylight
04 Dec - 20:39:04 10° SW 20:43:15 19° SSW 20:47:25 10° SSE daylight
05 Dec - 15:54:21 10° S 15:57:35 14° SSE 16:00:43 10° SE daylight
05 Dec - 17:45:10 10° SW 17:50:01 22° S 17:54:44 10° SE daylight
05 Dec - 19:37:53 10° SW 19:42:29 21° S 19:47:01 10° SE daylight
05 Dec - 21:32:44 10° SW 21:34:48 12° SSW 21:36:52 10° S daylight
06 Dec - 14:55:20 10° S 14:56:46 11° SSE 14:58:10 10° SE daylight
06 Dec - 16:44:28 10° SW 16:49:11 21° S 16:53:45 10° SE daylight
06 Dec - 18:36:47 10° SW 18:41:41 23° S 18:46:28 10° SE daylight
06 Dec - 20:30:36 10° SW 20:34:04 15° SSW 20:37:31 10° SSE daylight
07 Dec - 15:43:56 10° SSW 15:48:21 18° SSE 15:52:36 10° SE daylight
07 Dec - 17:35:46 10° SW 17:40:52 24° S 17:45:47 10° SE daylight
07 Dec - 19:29:04 10° SW 19:33:18 19° SSW 19:37:29 10° SSE daylight
08 Dec - 14:43:43 10° SSW 14:47:30 15° SSE 14:51:10 10° SE daylight
08 Dec - 16:34:50 10° SW 16:40:01 23° S 16:44:59 10° SE daylight
08 Dec - 18:27:44 10° WSW 18:32:32 22° S 18:37:11 10° SE daylight
08 Dec - 20:22:49 10° SW 20:24:50 12° SSW 20:26:49 10° S daylight
09 Dec - 13:44:10 10° S 13:46:38 12° SSE 13:49:03 10° SE daylight
09 Dec - 15:34:01 10° SW 15:39:08 22° S 15:44:02 10° ESE daylight
09 Dec - 17:26:31 10° SW 17:31:42 24° S 17:36:41 10° SE daylight
09 Dec - 19:20:30 10° SW 19:24:06 15° SSW 19:27:37 10° SSE daylight
10 Dec - 14:33:22 10° SSW 14:38:15 20° SSE 14:42:54 10° ESE daylight
10 Dec - 16:25:24 10° SW 16:30:51 25° S 16:36:01 10° SE daylight
10 Dec - 18:18:50 10° WSW 18:23:20 19° SSW 18:27:41 10° SSE daylight
11 Dec - 13:33:01 10° SSW 13:37:20 17° SSE 13:41:31 10° SE daylight
11 Dec - 15:24:22 10° SW 15:29:56 25° S 15:35:14 10° ESE daylight
11 Dec - 17:17:24 10° WSW 17:22:31 23° S 17:27:24 10° SE daylight
11 Dec - 19:12:35 10° SW 19:14:50 12° SSW 19:17:03 10° S daylight
12 Dec - 12:33:13 10° S 12:36:25 13° SSE 12:39:34 10° SE daylight
12 Dec - 14:23:27 10° SW 14:29:00 23° S 14:34:17 10° ESE daylight
12 Dec - 16:16:06 10° WSW 16:21:39 25° S 16:26:55 10° SE daylight
12 Dec - 18:10:11 10° SW 18:14:05 16° SSW 18:17:51 10° SSE daylight
